START_TIME,STEP,MOV.,M15,t_acc.,M20,t_acc.
1981-08-27 15:00:44.680 ,3,0,0.,24.0,0.,24.0
1981-08-27 15:01:08.680 ,4,1,0.,24.0,0.,24.0
1981-08-27 15:01:32.680 ,4,0,0.,24.0,0.,24.0
1981-08-27 15:01:56.680 ,5,1,0.,24.0,0.,24.0
1981-08-27 15:02:20.680 ,5,0,0.,24.0,0.,24.0
1981-08-27 15:02:44.680 ,6,1,0.,24.0,0.,24.0
1981-08-27 15:03:08.680 ,6,0,0.,24.0,0.,24.0
1981-08-27 15:03:32.680 ,7,1,0.,24.0,0.,24.0
1981-08-27 15:03:56.680 ,7,0,0.,24.0,0.,24.0
1981-08-27 15:04:20.680 ,7,1,0.,24.0,0.,24.0
1981-08-27 15:04:44.680 ,6,1,0.,24.0,0.,24.0
1981-08-27 15:05:08.680 ,5,1,0.,24.0,0.,24.0
1981-08-27 15:05:32.680 ,4,1,0.,24.0,0.,24.0
1981-08-27 15:06:44.680 ,0,0,0.,24.0,0.,24.0
1981-08-27 15:07:08.680 ,0,1,0.,24.0,0.,24.0
1981-08-27 15:07:32.680 ,0,1,0.,24.0,0.,24.0
1981-08-27 15:07:56.680 ,1,1,0.,24.0,0.,24.0
1981-08-27 15:08:20.680 ,2,1,0.,24.0,0.,24.0
1981-08-27 15:08:44.680 ,3,1,0.,24.0,0.,24.0
1981-08-27 15:09:08.680 ,4,1,0.,24.0,0.,24.0
1981-08-27 15:09:32.680 ,5,1,0.,24.0,0.,24.0
1981-08-27 15:09:56.680 ,6,1,0.,24.0,0.,24.0
1981-08-27 15:10:20.680 ,7,1,0.,24.0,0.,24.0
1981-08-27 15:10:44.680 ,7,1,0.,24.0,0.,24.0
1981-08-27 15:11:08.680 ,7,0,0.,24.0,0.,24.0
1981-08-27 15:11:32.680 ,6,1,0.,24.0,0.,24.0
1981-08-27 15:11:56.680 ,6,0,0.,24.0,0.,24.0
1981-08-27 15:12:20.680 ,5,1,0.,24.0,0.,24.0
1981-08-27 15:12:44.680 ,5,0,0.,24.0,0.,24.0
1981-08-27 15:13:08.680 ,4,1,0.,24.0,0.,24.0
1981-08-27 15:13:32.680 ,4,0,0.,24.0,0.,24.0
1981-08-27 15:13:56.680 ,3,1,0.,24.0,0.,24.0
1981-08-27 15:14:20.680 ,3,0,0.,24.0,0.,24.0
1981-08-27 15:14:44.680 ,2,1,0.,24.0,0.,24.0
1981-08-27 15:15:08.680 ,2,0,0.,24.0,0.,24.0
1981-08-27 15:15:32.680 ,1,1,0.,24.0,0.,24.0
1981-08-27 15:15:56.680 ,1,0,0.,24.0,0.,24.0
1981-08-27 15:16:20.680 ,0,1,0.,24.0,0.,24.0
1981-08-27 15:16:44.680 ,0,0,0.,24.0,0.,24.0
1981-08-27 15:17:08.680 ,0,1,0.,24.0,0.,24.0
1981-08-27 15:17:32.680 ,0,0,0.,24.0,0.,24.0
1981-08-27 15:17:56.680 ,1,1,0.,24.0,0.,24.0
1981-08-27 15:18:20.680 ,1,0,0.,24.0,0.,24.0
1981-08-27 15:18:44.680 ,2,1,0.,24.0,0.,24.0
1981-08-27 15:19:08.680 ,2,0,0.,24.0,0.,24.0
1981-08-27 15:19:32.680 ,3,1,0.,24.0,0.,24.0
1981-08-27 15:19:56.680 ,3,0,0.,24.0,0.,24.0
1981-08-27 15:20:20.680 ,4,1,0.,24.0,0.,24.0
1981-08-27 15:20:44.680 ,4,0,0.,24.0,0.,24.0
1981-08-27 15:21:08.680 ,5,1,0.,24.0,0.,24.0
1981-08-27 15:21:32.680 ,5,0,0.,24.0,0.,24.0
1981-08-27 15:21:56.680 ,6,1,0.,24.0,0.,24.0
1981-08-27 15:22:20.680 ,6,0,0.,24.0,0.,24.0
1981-08-27 15:22:44.680 ,7,1,0.,24.0,0.,24.0
1981-08-27 15:23:08.680 ,7,0,0.,24.0,0.,24.0
1981-08-27 15:23:32.680 ,7,1,0.,24.0,0.,24.0
1981-08-27 15:23:56.680 ,6,1,0.,24.0,0.,24.0
1981-08-27 15:24:20.680 ,5,1,0.,24.0,0.,24.0
1981-08-27 15:24:44.680 ,4,1,0.,24.0,0.,24.0
1981-08-27 15:25:08.680 ,3,1,0.,24.0,0.,24.0
1981-08-27 15:25:32.680 ,2,1,0.,24.0,0.,24.0
1981-08-27 15:25:56.680 ,1,1,0.,24.0,0.,24.0
1981-08-27 15:26:20.680 ,0,1,0.,24.0,0.,24.0
1981-08-27 15:26:44.680 ,0,1,0.,24.0,0.,24.0
1981-08-27 15:27:08.680 ,1,1,0.,24.0,0.,24.0
1981-08-27 15:27:32.680 ,2,1,0.,24.0,0.,24.0
1981-08-27 15:27:56.680 ,3,1,0.,24.0,0.,24.0
1981-08-27 15:28:20.680 ,4,1,0.,24.0,0.,24.0
1981-08-27 15:28:44.680 ,5,1,0.,24.0,0.,24.0
1981-08-27 15:29:08.680 ,6,1,0.,24.0,0.,24.0
1981-08-27 15:29:32.680 ,7,1,0.,24.0,0.,24.0
1981-08-27 15:29:56.680 ,7,1,0.,24.0,0.,24.0
1981-08-27 15:30:20.680 ,7,0,0.,24.0,0.,24.0
1981-08-27 15:30:44.680 ,6,1,0.,24.0,0.,24.0
1981-08-27 15:31:08.680 ,6,0,0.,24.0,0.,24.0
1981-08-27 15:31:32.680 ,5,1,0.,24.0,0.,24.0
1981-08-27 15:31:56.680 ,5,0,0.,24.0,0.,24.0
1981-08-27 15:32:20.680 ,4,1,0.,24.0,0.,24.0
1981-08-27 15:32:44.680 ,4,0,0.,24.0,0.,24.0
1981-08-27 15:33:08.680 ,3,1,0.,24.0,0.,24.0
1981-08-27 15:33:32.680 ,3,0,0.,24.0,0.,24.0
1981-08-27 15:33:56.680 ,2,1,0.,24.0,0.,24.0
1981-08-27 15:34:20.680 ,2,0,0.,24.0,0.,24.0
1981-08-27 15:34:44.680 ,1,1,0.,24.0,0.,24.0
1981-08-27 15:35:08.680 ,1,0,0.,24.0,0.,24.0
1981-08-27 15:35:32.680 ,0,1,0.,24.0,0.,24.0
1981-08-27 15:35:56.680 ,0,0,0.,24.0,0.,24.0
1981-08-27 15:36:20.680 ,0,1,0.,24.0,0.,24.0
1981-08-27 15:36:44.680 ,0,0,0.,24.0,0.,24.0
1981-08-27 15:37:08.680 ,1,1,0.,24.0,0.,24.0
1981-08-27 15:37:32.680 ,1,0,0.,24.0,0.,24.0
1981-08-27 15:37:56.680 ,2,1,0.,24.0,0.,24.0
1981-08-27 15:38:20.680 ,2,0,0.,24.0,0.,24.0
1981-08-27 15:38:44.680 ,3,1,0.,24.0,0.,24.0
1981-08-27 15:39:08.680 ,3,0,0.,24.0,0.,24.0
1981-08-27 15:39:32.680 ,4,1,0.,24.0,0.,24.0
1981-08-27 15:39:56.680 ,4,0,0.,24.0,0.,24.0
1981-08-27 15:40:20.680 ,5,1,0.,24.0,0.,24.0
1981-08-27 15:40:44.680 ,5,0,0.,24.0,0.,24.0
1981-08-27 15:41:08.680 ,6,1,0.,24.0,0.,24.0
1981-08-27 15:41:32.680 ,6,0,0.,24.0,0.,24.0
1981-08-27 15:41:56.680 ,7,1,0.,24.0,0.,24.0
1981-08-27 15:42:20.680 ,7,0,0.,24.0,0.,24.0
1981-08-27 15:42:44.680 ,7,1,0.,24.0,0.,24.0
1981-08-27 15:43:08.680 ,6,1,0.,24.0,0.,24.0
1981-08-27 15:43:32.680 ,5,1,0.,24.0,0.,24.0
1981-08-27 15:43:56.680 ,4,1,0.,24.0,0.,24.0
1981-08-27 15:44:20.680 ,3,1,0.,24.0,0.,24.0
1981-08-27 15:44:44.680 ,2,1,0.,24.0,0.,24.0
1981-08-27 15:45:08.680 ,1,1,0.,24.0,0.,24.0
1981-08-27 15:45:32.680 ,0,1,0.,24.0,0.,24.0
1981-08-27 15:45:56.680 ,0,1,0.,24.0,0.,24.0
1981-08-27 15:46:20.680 ,1,1,0.,24.0,0.,24.0
1981-08-27 15:46:44.680 ,2,1,0.,24.0,0.,24.0
1981-08-27 15:47:08.680 ,3,1,0.,24.0,0.,24.0
1981-08-27 15:47:32.680 ,4,1,0.,24.0,0.,24.0
1981-08-27 15:47:56.680 ,5,1,0.,24.0,0.,24.0
1981-08-27 15:48:20.680 ,6,1,0.,24.0,0.,24.0
1981-08-27 15:48:44.680 ,7,1,0.,24.0,0.,24.0
1981-08-27 15:49:08.680 ,7,1,0.,24.0,0.,24.0
1981-08-27 15:49:32.680 ,7,0,0.,24.0,0.,24.0
1981-08-27 15:49:56.680 ,6,1,0.,24.0,0.,24.0
1981-08-27 15:50:20.680 ,6,0,0.,24.0,0.,24.0
1981-08-27 15:50:44.680 ,5,1,0.,24.0,0.,24.0
1981-08-27 15:51:08.680 ,5,0,0.,24.0,0.,24.0
1981-08-27 15:51:32.680 ,4,1,0.,24.0,0.,24.0
1981-08-27 15:51:56.680 ,4,0,0.,24.0,0.,24.0
1981-08-27 15:52:20.680 ,3,1,0.,24.0,0.,24.0
1981-08-27 15:52:44.680 ,3,0,0.,24.0,0.,24.0
1981-08-27 15:53:08.680 ,2,1,0.,24.0,0.,24.0
1981-08-27 15:53:32.680 ,2,0,0.,24.0,0.,24.0
1981-08-27 15:53:56.680 ,1,1,0.,24.0,0.,24.0
1981-08-27 15:54:20.680 ,1,0,0.,24.0,0.,24.0
1981-08-27 15:54:44.680 ,0,1,0.,24.0,0.,24.0
1981-08-27 15:55:08.680 ,0,0,0.,24.0,0.,24.0
1981-08-27 15:55:32.680 ,0,1,0.,24.0,0.,24.0
1981-08-27 15:55:56.680 ,0,0,0.,24.0,0.,24.0
1981-08-27 15:56:20.680 ,1,1,0.,24.0,0.,24.0
1981-08-27 15:56:44.680 ,1,0,0.,24.0,0.,24.0
1981-08-27 15:57:08.680 ,2,1,0.,24.0,0.,24.0
1981-08-27 15:57:32.680 ,2,0,0.,24.0,0.,24.0
1981-08-27 15:57:56.680 ,3,1,0.,24.0,0.,24.0
1981-08-27 15:58:20.680 ,3,0,0.,24.0,0.,24.0
1981-08-27 15:58:44.680 ,4,1,0.,24.0,0.,24.0
1981-08-27 15:59:08.680 ,4,0,0.,24.0,0.,24.0
1981-08-27 15:59:32.680 ,5,1,0.,24.0,0.,24.0
1981-08-27 15:59:56.680 ,5,0,0.,24.0,0.,24.0
1981-08-27 16:00:20.680 ,6,1,0.,24.0,0.,24.0
1981-08-27 16:00:44.680 ,6,0,0.,24.0,0.,24.0
1981-08-27 16:01:08.680 ,7,1,0.,24.0,0.,24.0
1981-08-27 16:01:32.680 ,7,0,0.,24.0,0.,24.0
1981-08-27 16:01:56.680 ,7,1,0.,24.0,0.,24.0
1981-08-27 16:02:20.680 ,6,1,0.,24.0,0.,24.0
1981-08-27 16:02:44.680 ,5,1,0.,24.0,0.,24.0
1981-08-27 16:03:08.680 ,4,1,0.,24.0,0.,24.0
1981-08-27 16:03:32.680 ,3,1,0.,24.0,0.,24.0
1981-08-27 16:03:56.680 ,2,1,0.,24.0,0.,24.0
1981-08-27 16:04:20.680 ,1,1,0.,24.0,0.,24.0
1981-08-27 16:04:44.680 ,0,1,0.,24.0,0.,24.0
1981-08-27 16:05:08.680 ,0,1,0.,24.0,0.,24.0
1981-08-27 16:05:32.680 ,1,1,0.,24.0,0.,24.0
1981-08-27 16:05:56.680 ,2,1,0.,24.0,0.,24.0
1981-08-27 16:06:20.680 ,3,1,0.,24.0,0.,24.0
1981-08-27 16:06:44.680 ,4,1,0.,24.0,0.,24.0
1981-08-27 16:07:08.680 ,5,1,0.,24.0,0.,24.0
1981-08-27 16:07:32.680 ,6,1,0.,24.0,0.,24.0
1981-08-27 16:07:56.680 ,7,1,0.,24.0,0.,24.0
1981-08-27 16:08:20.680 ,7,1,0.,24.0,0.,24.0
1981-08-27 16:08:44.680 ,7,0,0.,24.0,0.,24.0
1981-08-27 16:09:08.680 ,6,1,0.,24.0,0.,24.0
1981-08-27 16:09:32.680 ,6,0,0.,24.0,0.,24.0
1981-08-27 16:09:56.680 ,5,1,0.,24.0,0.,24.0
1981-08-27 16:10:20.680 ,5,0,0.,24.0,0.,24.0
1981-08-27 16:10:44.680 ,4,1,0.,24.0,0.,24.0
1981-08-27 16:11:08.680 ,4,0,0.,24.0,0.,24.0
1981-08-27 16:11:32.680 ,3,1,0.,24.0,0.,24.0
1981-08-27 16:11:56.680 ,3,0,0.,24.0,0.,24.0
1981-08-27 16:12:20.680 ,2,1,0.,24.0,0.,24.0
1981-08-27 16:12:44.680 ,2,0,0.,24.0,0.,24.0
1981-08-27 16:13:08.680 ,1,1,0.,24.0,0.,24.0
1981-08-27 16:13:32.680 ,1,0,0.,24.0,0.,24.0
1981-08-27 16:13:56.680 ,0,1,0.,24.0,0.,24.0
1981-08-27 16:14:20.680 ,0,0,0.,24.0,0.,24.0
1981-08-27 16:14:44.680 ,0,1,0.,24.0,0.,24.0
1981-08-27 16:15:08.680 ,0,0,0.,24.0,0.,24.0
1981-08-27 16:15:32.680 ,1,1,0.,24.0,0.,24.0
1981-08-27 16:15:56.680 ,1,0,0.,24.0,0.,24.0
1981-08-27 16:16:20.680 ,2,1,0.,24.0,0.,24.0
1981-08-27 16:16:44.680 ,2,0,0.,24.0,0.,24.0
1981-08-27 16:17:08.680 ,3,1,0.,24.0,0.,24.0
1981-08-27 16:17:32.680 ,3,0,0.,24.0,0.,24.0
1981-08-27 16:17:56.680 ,4,1,0.,24.0,0.,24.0
1981-08-27 16:18:20.680 ,4,0,0.,24.0,0.,24.0
1981-08-27 16:18:44.680 ,5,1,0.,24.0,0.,24.0
1981-08-27 16:19:08.680 ,5,0,0.,24.0,0.,24.0
1981-08-27 16:19:32.680 ,6,1,0.,24.0,0.,24.0
1981-08-27 16:19:56.680 ,6,0,0.,24.0,0.,24.0
1981-08-27 16:20:20.680 ,7,1,0.,24.0,0.,24.0
1981-08-27 16:20:44.680 ,7,0,0.,24.0,0.,24.0
1981-08-27 16:21:08.680 ,7,1,0.,24.0,0.,24.0
1981-08-27 16:21:32.680 ,6,1,0.,24.0,0.,24.0
1981-08-27 16:21:56.680 ,5,1,0.,24.0,0.,24.0
1981-08-27 16:22:20.680 ,4,1,0.,24.0,0.,24.0
1981-08-27 16:22:44.680 ,3,1,0.,24.0,0.,24.0
1981-08-27 16:23:08.680 ,2,1,0.,24.0,0.,24.0
1981-08-27 16:23:32.680 ,1,1,0.,24.0,0.,24.0
1981-08-27 16:23:56.680 ,0,1,0.,24.0,0.,24.0
1981-08-27 16:24:20.680 ,0,1,0.,24.0,0.,24.0
1981-08-27 16:24:44.680 ,1,1,0.,24.0,0.,24.0
1981-08-27 16:25:08.680 ,2,1,0.,24.0,0.,24.0
1981-08-27 16:25:32.680 ,3,1,0.,24.0,0.,24.0
1981-08-27 16:25:56.680 ,4,1,0.,24.0,0.,24.0
1981-08-27 16:26:20.680 ,5,1,0.,24.0,0.,24.0
1981-08-27 16:26:44.680 ,6,1,0.,24.0,0.,24.0
1981-08-27 16:27:08.680 ,7,1,0.,24.0,0.,24.0
1981-08-27 16:27:32.680 ,0,0,,0,,0
1981-08-27 16:27:56.680 ,0,0,,0,,0
1981-08-27 16:28:36.280 ,0,0,0.,24.0,0.,24.0
1981-08-27 16:28:44.680 ,0,0,0.,24.0,0.,24.0
1981-08-27 16:29:08.680 ,5,1,0.,24.0,0.,24.0
1981-08-27 16:29:32.680 ,5,0,0.,24.0,0.,24.0
1981-08-27 16:29:56.680 ,4,1,0.,24.0,0.,24.0
1981-08-27 16:30:20.680 ,4,0,0.,24.0,0.,24.0
1981-08-27 16:30:44.680 ,3,1,0.,24.0,0.,24.0
1981-08-27 16:31:08.680 ,3,0,0.,24.0,0.,24.0
1981-08-27 16:31:32.680 ,2,1,0.,24.0,0.,24.0
1981-08-27 16:31:56.680 ,2,0,0.,24.0,0.,24.0
1981-08-27 16:32:20.680 ,1,1,0.,24.0,0.,24.0
1981-08-27 16:32:44.680 ,1,0,0.,24.0,0.,24.0
1981-08-27 16:33:08.680 ,0,0,0.,24.0,0.,24.0
1981-08-27 16:33:32.680 ,0,0,0.,24.0,0.,24.0
1981-08-27 16:33:56.680 ,0,1,0.,24.0,0.,24.0
1981-08-27 16:34:20.680 ,0,0,0.,24.0,0.,24.0
1981-08-27 16:34:44.680 ,1,1,0.,24.0,0.,24.0
1981-08-27 16:35:08.680 ,1,0,0.,24.0,0.,24.0
1981-08-27 16:35:32.680 ,2,1,0.,24.0,0.,24.0
1981-08-27 16:35:56.680 ,2,0,0.,24.0,0.,24.0
1981-08-27 16:36:20.680 ,3,1,0.,24.0,0.,24.0
1981-08-27 16:36:44.680 ,3,0,1.,24.0,0.,24.0
1981-08-27 16:37:08.680 ,4,1,0.,24.0,0.,24.0
1981-08-27 16:37:32.680 ,4,0,0.,24.0,0.,24.0
1981-08-27 16:37:56.680 ,5,1,0.,24.0,0.,24.0
1981-08-27 16:38:20.680 ,5,0,0.,24.0,0.,24.0
1981-08-27 16:38:44.680 ,6,1,0.,24.0,0.,24.0
1981-08-27 16:39:08.680 ,6,0,0.,24.0,0.,24.0
1981-08-27 16:39:32.680 ,7,1,0.,24.0,0.,24.0
1981-08-27 16:39:56.680 ,7,0,0.,24.0,0.,24.0
1981-08-27 16:40:20.680 ,7,1,0.,24.0,0.,24.0
1981-08-27 16:40:44.680 ,6,1,0.,24.0,0.,24.0
1981-08-27 16:41:08.680 ,5,1,0.,24.0,0.,24.0
1981-08-27 16:41:32.680 ,4,1,0.,24.0,0.,24.0
1981-08-27 16:41:56.680 ,3,1,0.,24.0,0.,24.0
1981-08-27 16:42:20.680 ,2,1,0.,24.0,0.,24.0
1981-08-27 16:42:44.680 ,1,1,0.,24.0,0.,24.0
1981-08-27 16:43:08.680 ,0,1,0.,24.0,0.,24.0
1981-08-27 16:43:32.680 ,0,1,0.,24.0,0.,24.0
1981-08-27 16:43:56.680 ,1,1,0.,24.0,0.,24.0
1981-08-27 16:44:20.680 ,2,1,0.,24.0,0.,24.0
1981-08-27 16:44:44.680 ,3,1,0.,24.0,0.,24.0
1981-08-27 16:45:08.680 ,4,1,0.,24.0,0.,24.0
1981-08-27 16:45:32.680 ,5,1,0.,24.0,0.,24.0
1981-08-27 16:45:56.680 ,6,1,0.,24.0,0.,24.0
1981-08-27 16:46:20.680 ,7,1,0.,24.0,0.,24.0
1981-08-27 16:46:44.680 ,7,1,0.,24.0,0.,24.0
1981-08-27 16:47:08.680 ,7,0,0.,24.0,0.,24.0
1981-08-27 16:47:32.680 ,6,1,0.,24.0,0.,24.0
1981-08-27 16:47:56.680 ,6,0,0.,24.0,0.,24.0
1981-08-27 16:48:20.680 ,5,1,0.,24.0,0.,24.0
1981-08-27 16:48:44.680 ,5,0,0.,24.0,0.,24.0
1981-08-27 16:49:08.680 ,4,1,0.,24.0,0.,24.0
1981-08-27 16:49:32.680 ,4,0,0.,24.0,0.,24.0
1981-08-27 16:49:56.680 ,3,1,0.,24.0,0.,24.0
1981-08-27 16:50:20.680 ,3,0,0.,24.0,0.,24.0
1981-08-27 16:50:44.680 ,2,1,0.,24.0,0.,24.0
1981-08-27 16:51:08.680 ,2,0,0.,24.0,0.,24.0
1981-08-27 16:51:32.680 ,1,1,0.,24.0,0.,24.0
1981-08-27 16:51:56.680 ,1,0,0.,24.0,0.,24.0
1981-08-27 16:52:20.680 ,0,1,0.,24.0,0.,24.0
1981-08-27 16:52:44.680 ,0,0,0.,24.0,0.,24.0
1981-08-27 16:53:08.680 ,0,1,0.,24.0,0.,24.0
1981-08-27 16:53:32.680 ,0,0,0.,24.0,0.,24.0
1981-08-27 16:53:56.680 ,1,1,0.,24.0,0.,24.0
1981-08-27 16:54:20.680 ,1,0,0.,24.0,0.,24.0
1981-08-27 16:54:44.680 ,2,1,0.,24.0,0.,24.0
1981-08-27 16:55:08.680 ,2,0,0.,24.0,0.,24.0
1981-08-27 16:55:32.680 ,3,1,0.,24.0,0.,24.0
1981-08-27 16:55:56.680 ,3,0,0.,24.0,0.,24.0
1981-08-27 16:56:20.680 ,4,1,0.,24.0,0.,24.0
1981-08-27 16:56:44.680 ,4,0,0.,24.0,0.,24.0
1981-08-27 16:57:08.680 ,5,1,0.,24.0,0.,24.0
1981-08-27 16:57:32.680 ,5,0,0.,24.0,0.,24.0
1981-08-27 16:57:56.680 ,6,1,0.,24.0,0.,24.0
1981-08-27 16:58:20.680 ,6,0,0.,24.0,0.,24.0
1981-08-27 16:58:44.680 ,7,1,0.,24.0,0.,24.0
1981-08-27 16:59:08.680 ,7,0,0.,24.0,0.,24.0
1981-08-27 16:59:32.680 ,7,1,0.,24.0,0.,24.0
1981-08-27 16:59:56.680 ,6,1,0.,24.0,0.,24.0
1981-08-27 17:00:20.680 ,5,1,0.,24.0,0.,24.0
1981-08-27 17:00:44.680 ,4,1,0.,24.0,0.,24.0
1981-08-27 17:01:08.680 ,3,1,0.,24.0,0.,24.0
1981-08-27 17:01:32.680 ,2,1,0.,24.0,0.,24.0
1981-08-27 17:01:56.680 ,1,1,0.,24.0,0.,24.0
1981-08-27 17:02:20.680 ,0,1,0.,24.0,0.,24.0
1981-08-27 17:02:44.680 ,0,1,0.,24.0,0.,24.0
1981-08-27 17:03:08.680 ,1,1,0.,24.0,0.,24.0
1981-08-27 17:03:32.680 ,2,1,0.,24.0,0.,24.0
1981-08-27 17:03:56.680 ,3,1,0.,24.0,0.,24.0
1981-08-27 17:04:20.680 ,4,1,0.,24.0,0.,24.0
1981-08-27 17:04:44.680 ,5,1,0.,24.0,0.,24.0
1981-08-27 17:05:08.680 ,6,1,0.,24.0,0.,24.0
1981-08-27 17:05:32.680 ,7,1,0.,24.0,0.,24.0
1981-08-27 17:05:56.680 ,7,1,0.,24.0,0.,24.0
1981-08-27 17:06:20.680 ,7,0,0.,24.0,0.,24.0
1981-08-27 17:06:44.680 ,6,1,0.,24.0,0.,24.0
1981-08-27 17:07:08.680 ,6,0,0.,24.0,0.,24.0
1981-08-27 17:07:32.680 ,5,1,0.,24.0,0.,24.0
1981-08-27 17:07:56.680 ,5,0,0.,24.0,0.,24.0
1981-08-27 17:08:20.680 ,4,1,0.,24.0,0.,24.0
1981-08-27 17:08:44.680 ,4,0,0.,24.0,0.,24.0
1981-08-27 17:09:08.680 ,3,1,0.,24.0,0.,24.0
1981-08-27 17:09:32.680 ,3,0,0.,24.0,0.,24.0
1981-08-27 17:09:56.680 ,2,1,0.,24.0,0.,24.0
1981-08-27 17:10:20.680 ,2,0,0.,24.0,0.,24.0
1981-08-27 17:10:44.680 ,1,1,0.,24.0,0.,24.0
1981-08-27 17:11:08.680 ,1,0,0.,24.0,0.,24.0
1981-08-27 17:11:32.680 ,0,1,0.,24.0,0.,24.0
1981-08-27 17:11:56.680 ,0,0,0.,24.0,0.,24.0
1981-08-27 17:12:20.680 ,0,1,0.,24.0,0.,24.0
1981-08-27 17:12:44.680 ,0,0,0.,24.0,0.,24.0
1981-08-27 17:13:08.680 ,1,1,0.,24.0,0.,24.0
1981-08-27 17:13:32.680 ,1,0,0.,24.0,0.,24.0
1981-08-27 17:13:56.680 ,2,1,0.,24.0,0.,24.0
1981-08-27 17:14:20.680 ,2,0,0.,24.0,0.,24.0
1981-08-27 17:14:44.680 ,3,1,0.,24.0,0.,24.0
1981-08-27 17:15:08.680 ,3,0,0.,24.0,0.,24.0
1981-08-27 17:15:32.680 ,4,1,0.,24.0,0.,24.0
1981-08-27 17:15:56.680 ,4,0,0.,24.0,0.,24.0
1981-08-27 17:16:20.680 ,5,1,0.,24.0,0.,24.0
1981-08-27 17:16:44.680 ,5,0,0.,24.0,0.,24.0
1981-08-27 17:17:08.680 ,6,1,0.,24.0,0.,24.0
1981-08-27 17:17:32.680 ,6,0,0.,24.0,0.,24.0
1981-08-27 17:17:56.680 ,7,1,0.,24.0,0.,24.0
1981-08-27 17:18:20.680 ,7,0,0.,24.0,0.,24.0
1981-08-27 17:18:44.680 ,7,1,0.,24.0,0.,24.0
1981-08-27 17:19:08.680 ,6,1,0.,24.0,0.,24.0
1981-08-27 17:19:32.680 ,5,1,0.,24.0,0.,24.0
1981-08-27 17:19:56.680 ,4,1,0.,24.0,0.,24.0
1981-08-27 17:20:20.680 ,3,1,0.,24.0,0.,24.0
1981-08-27 17:20:44.680 ,2,1,0.,24.0,0.,24.0
1981-08-27 17:21:08.680 ,1,1,0.,24.0,0.,24.0
1981-08-27 17:21:32.680 ,0,1,0.,24.0,0.,24.0
1981-08-27 17:21:56.680 ,0,1,0.,24.0,0.,24.0
1981-08-27 17:22:20.680 ,1,1,0.,24.0,0.,24.0
1981-08-27 17:22:44.680 ,2,1,0.,24.0,0.,24.0
1981-08-27 17:23:08.680 ,0,0,0.,24.0,0.,24.0
1981-08-27 17:23:44.680 ,0,0,0.,24.0,0.,24.0
1981-08-27 17:23:56.680 ,5,1,0.,24.0,0.,24.0
1981-08-27 17:24:20.680 ,6,1,0.,24.0,0.,24.0
1981-08-27 17:24:44.680 ,7,1,0.,24.0,0.,24.0
1981-08-27 17:25:08.680 ,7,1,0.,24.0,0.,24.0
1981-08-27 17:25:32.680 ,7,0,0.,24.0,0.,24.0
1981-08-27 17:25:56.680 ,6,1,0.,24.0,0.,24.0
1981-08-27 17:26:20.680 ,6,0,0.,24.0,0.,24.0
1981-08-27 17:26:44.680 ,5,1,0.,24.0,0.,24.0
1981-08-27 17:27:08.680 ,5,0,0.,24.0,0.,24.0
1981-08-27 17:27:32.680 ,4,1,0.,24.0,0.,24.0
1981-08-27 17:27:56.680 ,4,0,0.,24.0,0.,24.0
1981-08-27 17:28:20.680 ,3,1,0.,24.0,0.,24.0
1981-08-27 17:28:44.680 ,3,0,0.,24.0,0.,24.0
1981-08-27 17:29:08.680 ,2,1,0.,24.0,0.,24.0
1981-08-27 17:29:32.680 ,2,0,0.,24.0,0.,24.0
1981-08-27 17:29:56.680 ,1,1,0.,24.0,0.,24.0
1981-08-27 17:30:20.680 ,1,0,0.,24.0,0.,24.0
1981-08-27 17:30:44.680 ,0,1,0.,24.0,0.,24.0
1981-08-27 17:31:08.680 ,0,0,0.,24.0,0.,24.0
1981-08-27 17:31:32.680 ,0,1,0.,24.0,0.,24.0
1981-08-27 17:31:56.680 ,0,0,0.,24.0,0.,24.0
1981-08-27 17:32:20.680 ,1,1,0.,24.0,0.,24.0
1981-08-27 17:32:44.680 ,1,0,0.,24.0,0.,24.0
1981-08-27 17:33:08.680 ,2,1,0.,24.0,0.,24.0
1981-08-27 17:33:32.680 ,2,0,0.,24.0,0.,24.0
1981-08-27 17:33:56.680 ,3,1,0.,24.0,0.,24.0
1981-08-27 17:34:20.680 ,3,0,0.,24.0,0.,24.0
1981-08-27 17:34:44.670 ,4,1,0.,24.0,0.,24.0
1981-08-27 17:35:08.670 ,0,0,,0,,0
1981-08-27 17:35:08.670 ,0,0,0.,24.0,0.,24.0
1981-08-27 17:35:32.670 ,5,1,0.,24.0,0.,24.0
1981-08-27 17:35:56.670 ,5,0,0.,24.0,0.,24.0
1981-08-27 17:36:20.670 ,6,1,0.,24.0,0.,24.0
1981-08-27 17:36:44.670 ,6,0,0.,24.0,0.,24.0
1981-08-27 17:37:08.670 ,7,1,0.,24.0,0.,24.0
1981-08-27 17:37:32.670 ,7,0,0.,24.0,0.,24.0
1981-08-27 17:37:56.670 ,7,1,0.,24.0,0.,24.0
1981-08-27 17:38:20.670 ,6,1,0.,24.0,0.,24.0
1981-08-27 17:38:44.670 ,5,1,0.,24.0,0.,24.0
1981-08-27 17:39:08.670 ,4,1,0.,24.0,0.,24.0
1981-08-27 17:39:32.670 ,3,1,0.,24.0,0.,24.0
1981-08-27 17:39:56.670 ,2,1,0.,24.0,0.,24.0
1981-08-27 17:40:20.670 ,1,1,0.,24.0,0.,24.0
1981-08-27 17:40:44.670 ,0,1,0.,24.0,0.,24.0
1981-08-27 17:41:08.670 ,0,1,0.,24.0,0.,24.0
1981-08-27 17:41:32.670 ,1,1,0.,24.0,0.,24.0
1981-08-27 17:41:56.670 ,2,1,0.,24.0,0.,24.0
1981-08-27 17:42:20.670 ,3,1,0.,24.0,0.,24.0
1981-08-27 17:42:44.670 ,4,1,0.,24.0,0.,24.0
1981-08-27 17:43:08.670 ,5,1,0.,24.0,0.,24.0
1981-08-27 17:43:32.670 ,6,1,0.,24.0,0.,24.0
1981-08-27 17:43:56.670 ,7,1,0.,24.0,0.,24.0
1981-08-27 17:44:20.670 ,7,1,0.,24.0,0.,24.0
1981-08-27 17:44:44.670 ,7,0,0.,24.0,0.,24.0
1981-08-27 17:45:08.670 ,6,1,0.,24.0,0.,24.0
1981-08-27 17:45:32.670 ,6,0,0.,24.0,0.,24.0
1981-08-27 17:45:56.670 ,5,1,0.,24.0,0.,24.0
1981-08-27 17:46:20.670 ,5,0,0.,24.0,0.,24.0
1981-08-27 17:46:44.670 ,4,1,0.,24.0,0.,24.0
1981-08-27 17:47:08.670 ,4,0,0.,24.0,0.,24.0
1981-08-27 17:47:32.670 ,3,1,0.,24.0,0.,24.0
1981-08-27 17:47:56.670 ,3,0,0.,24.0,0.,24.0
1981-08-27 17:48:20.670 ,2,1,0.,24.0,0.,24.0
1981-08-27 17:48:44.670 ,2,0,0.,24.0,0.,24.0
1981-08-27 17:49:08.670 ,1,1,0.,24.0,0.,24.0
1981-08-27 17:49:32.670 ,1,0,0.,24.0,0.,24.0
1981-08-27 17:49:56.670 ,0,1,0.,24.0,0.,24.0
1981-08-27 17:50:20.670 ,0,0,0.,24.0,0.,24.0
1981-08-27 17:50:44.670 ,0,1,0.,24.0,0.,24.0
1981-08-27 17:51:08.670 ,0,0,0.,24.0,0.,24.0
1981-08-27 17:51:32.670 ,1,1,0.,24.0,0.,24.0
1981-08-27 17:51:56.670 ,1,0,0.,24.0,0.,24.0
1981-08-27 17:52:20.670 ,2,1,0.,24.0,0.,24.0
1981-08-27 17:52:44.670 ,2,0,0.,24.0,0.,24.0
1981-08-27 17:53:08.670 ,3,1,0.,24.0,0.,24.0
1981-08-27 17:53:32.670 ,3,0,0.,24.0,0.,24.0
1981-08-27 17:53:56.670 ,4,1,0.,24.0,0.,24.0
1981-08-27 17:54:20.670 ,4,0,0.,24.0,0.,24.0
1981-08-27 17:54:44.670 ,5,1,0.,24.0,0.,24.0
1981-08-27 17:55:08.670 ,5,0,0.,24.0,0.,24.0
1981-08-27 17:55:32.670 ,6,1,0.,24.0,0.,24.0
1981-08-27 17:55:56.670 ,6,0,0.,24.0,0.,24.0
1981-08-27 17:56:20.670 ,7,1,0.,24.0,0.,24.0
1981-08-27 17:56:44.670 ,7,0,0.,24.0,0.,24.0
1981-08-27 17:57:08.670 ,7,1,0.,24.0,0.,24.0
1981-08-27 17:57:32.670 ,6,1,0.,24.0,0.,24.0
1981-08-27 17:57:56.670 ,5,1,0.,24.0,0.,24.0
1981-08-27 17:58:20.670 ,4,1,0.,24.0,0.,24.0
1981-08-27 17:58:44.670 ,3,1,0.,24.0,0.,24.0
1981-08-27 17:59:08.670 ,2,1,0.,24.0,0.,24.0
1981-08-27 17:59:32.670 ,1,1,0.,24.0,0.,24.0
1981-08-27 17:59:56.670 ,0,1,0.,24.0,0.,24.0
1981-08-27 18:00:20.670 ,0,1,0.,24.0,0.,24.0
